Location: Makanda
(37.6176°N, 89.2090°W)
Time: 05:48:13
(UTC+00:00)

H-2A R/B - Pass Details

Date: 23 September 2019
Orbit: 734 x 836 km, 98.3° (Epoch: 18 October)

Event Time Altitude Azimuth Distance (km) Brightness Sun altitude
Exits shadow 01:22:56 33° 89° (E) 1,248 2.6 -18.2°
Maximum altitude 01:23:41 35° 70° (ENE) 1,207 2.6 -18.4°
Drops below altitude 10° 01:28:13 10° 6° (N) 2,297 4.6 -19.3°
Sets 01:30:43 0° 358° (N) 3,243 5.5 -19.7°
